Flag for Germany Weather past 2 weeks in Mainz, Rhineland-Palatinate, Germany

Now
32 °F

Passing clouds.


Feels Like: 32 °F
Forecast: 35 / 52 °F
Wind: 2 mph from West

Location: Wiesbaden Airport

Current Time: Mar 6, 2015 at 7:01:40 AM

Latest Report: Mar 6, 2015 at 5:58 AM


Visibility: N/A

Pressure: 30.66 "Hg

Humidity: 100%

Dew point: 32 °F

Location of MainzLocation

Historic Weather in Mainz — Graph

°F

Mainz temperature yesterday

Maximum temperature yesterday: 46 °F (at 2:58 PM)
Minimum temperature yesterday: 34 °F (at 11:50 PM)
Average temperature yesterday: 40 °F

Past Weeks' High & Low Weather Summary

 TemperatureHumidityPressure
High52 °F (Feb 20, 1:58 PM)100% (Feb 22, 5:58 AM)30.66 "Hg (Feb 22, 5:58 AM)
Low29 °F (Feb 28, 6:58 AM)43% (Mar 2, 3:58 PM)29.47 "Hg (Feb 21, 6:58 AM)
Average39 °F81%30.00 "Hg
* Reported Feb 19 5:58 AM — Mar 6 5:58 AM, Mainz, Weather by CustomWeather, © 2015

Note: Actual official high and low records may vary slightly from our data, if they occured in-between our weather recording intervals... More about our weather records

Advertising

Mainz weather history for previous 24 hours

 ConditionsComfort  
Time TempWeatherWind HumidityBarometerVisibility
5:58 AM
Fri, Mar 6
32 °FPassing clouds.2 mph100%30.66 "HgN/A
4:58 AM33 °FClear.5 mph95%30.66 "HgN/A
4:03 AM32 °FPassing clouds.3 mph100%30.62 "HgN/A
3:58 AM32 °FPassing clouds.3 mph93%30.65 "HgN/A
2:58 AM32 °FClear.2 mph93%30.65 "HgN/A
1:58 AM34 °FPassing clouds.2 mph87%30.66 "HgN/A
12:58 AM36 °FOvercast.No wind81%30.66 "HgN/A
11:58 PM
Thu, Mar 5
34 °FPassing clouds.1 mph86%30.66 "HgN/A
11:50 PM34 °FPassing clouds.No wind87%30.64 "HgN/A
10:58 PM36 °FClear.7 mph81%30.65 "HgN/A
9:58 PM36 °FPassing clouds.3 mph82%30.64 "HgN/A
8:58 PM38 °FPassing clouds.2 mph79%30.66 "HgN/A
7:58 PM40 °FOvercast.5 mph70%30.66 "HgN/A
6:58 PM42 °FOvercast.6 mph67%30.65 "HgN/A
5:58 PM44 °FMore clouds than sun.7 mph64%30.63 "HgN/A
4:58 PM46 °FMostly cloudy.6 mph59%30.62 "HgN/A
3:58 PM46 °FMostly cloudy.7 mph56%30.62 "HgN/A
2:58 PM46 °FMostly cloudy.8 mph57%30.62 "HgN/A
1:58 PM45 °FMostly cloudy.6 mph57%30.63 "HgN/A
12:58 PM44 °FPartly sunny.7 mph61%30.64 "HgN/A
11:58 AM44 °FPartly sunny.7 mph62%30.65 "HgN/A
10:55 AM44 °FPartly sunny.9 mph63%30.65 "HgN/A
9:55 AM42 °FScattered clouds.5 mph65%30.64 "HgN/A
8:58 AM39 °FOvercast.5 mph73%30.63 "HgN/A
7:58 AM35 °FScattered clouds.2 mph81%30.61 "HgN/A
Weather by CustomWeather, © 2015

See weather overviewHow to use our weather pages